Weather History for Bradshaw AFB, HI

Change the Weather History Date:

Wednesday, October 16, 2013

  Actual Average Record
Temperature  
Mean Temperature 57 °F -  
Max Temperature 68 °F 69 °F 75 °F (2002)
Min Temperature 46 °F 49 °F 33 °F (2012)
Degree Days  
Heating Degree Days 8    
Growing Degree Days 7 (Base 50)    
Moisture  
Dew Point 49 °F    
Average Humidity 73    
Maximum Humidity 90    
Minimum Humidity 44    
Precipitation  
Precipitation 0.12 in - - ()
Sea Level Pressure  
Sea Level Pressure 30.28 in    
Wind  
Wind Speed 5 mph (South)    
Max Wind Speed 14 mph    
Max Gust Speed 24 mph    
Visibility 10 miles    
Events Rain    
Averages and records for this station are not official NWS values.
T = Trace of Precipitation, MM = Missing Value Source: NWS Daily Summary

Daily Weather History Graph

Daily Weather History Graph

Search for Another Location

Airport:

Trip Planner

Search our weather history database for the weather conditions in past years. The results will help you decide how hot, cold, wet, or windy it might be!

Date:

Astronomy

Oct. 16, 2013 Rise Set
Actual Time 6:17 AM HST 5:57 PM HST
Civil Twilight 5:55 AM HST 6:19 PM HST
Nautical Twilight 5:29 AM HST 6:45 PM HST
Astronomical Twilight 5:03 AM HST 7:11 PM HST
Moon 4:32 PM HST (10/16) 4:12 AM HST (10/16)
Length of Visible Light 12h 24m
Length of Day
11h 40m
Waxing Gibbous, 95% of the Moon is Illuminated
Oct 16
Waxing Gibbous
Oct 18
Full
Oct 26
Last Quarter
Nov 3
New
Nov 9
First Quarter

Hourly Weather History & Observations

Time (HST) Temp. Dew Point Humidity Pressure Visibility Wind Dir Wind Speed Gust Speed Precip Events Conditions
12:56 AM 48.7 °F 42.1 °F 78% 30.29 in 12.0 mi ESE 3.5 mph - N/A   Clear
1:56 AM 48.6 °F 40.6 °F 74% 30.27 in 12.0 mi ESE 3.5 mph - N/A   Clear
2:56 AM 48.0 °F 39.0 °F 71% 30.26 in 12.0 mi ESE 4.6 mph - N/A   Clear
3:56 AM 47.5 °F 39.7 °F 75% 30.26 in 12.0 mi ESE 5.8 mph - N/A   Clear
4:56 AM 46.6 °F 38.5 °F 73% 30.26 in 12.0 mi East 4.6 mph - N/A   Clear
5:56 AM 47.8 °F 39.6 °F 73% 30.27 in 12.0 mi ESE 5.8 mph - N/A   Clear
6:56 AM 50.4 °F 37.8 °F 62% 30.29 in 5.0 mi ESE 4.6 mph - N/A   Clear
7:56 AM 59.7 °F 42.1 °F 52% 30.30 in 12.0 mi SE 6.9 mph - N/A   Clear
8:56 AM 63.0 °F 46.4 °F 55% 30.31 in 12.0 mi SE 4.6 mph - N/A   Clear
9:56 AM 66.2 °F 45.5 °F 47% 30.32 in 12.0 mi South 5.8 mph - N/A   Clear
10:56 AM 68.5 °F 46.0 °F 44% 30.31 in 12.0 mi SW 6.9 mph - N/A   Clear
11:56 AM 68.4 °F 54.0 °F 60% 30.29 in 12.0 mi WSW 12.7 mph 24.2 mph N/A   Scattered Clouds
12:56 PM 68.7 °F 56.3 °F 64% 30.27 in 12.0 mi WSW 13.8 mph 20.7 mph N/A   Scattered Clouds
1:56 PM 64.8 °F 54.0 °F 68% 30.26 in 12.0 mi West 6.9 mph 16.1 mph N/A   Partly Cloudy
2:26 PM 66.2 °F 55.4 °F 68% 30.26 in 12.0 mi West 8.1 mph 15.0 mph N/A   Mostly Cloudy
2:31 PM 64.4 °F 55.4 °F 73% 30.26 in 12.0 mi WSW 2.3 mph 11.5 mph N/A   Mostly Cloudy
2:56 PM 65.5 °F 53.8 °F 66% 30.25 in 12.0 mi WSW 6.9 mph - N/A   Mostly Cloudy
3:05 PM 64.4 °F 53.6 °F 68% 30.25 in 12.0 mi West 6.9 mph 15.0 mph N/A Rain Light Rain
3:20 PM 64.4 °F 55.4 °F 73% 30.25 in 12.0 mi WSW 9.2 mph 16.1 mph N/A   Mostly Cloudy
3:21 PM 64.4 °F 55.4 °F 73% 30.25 in 12.0 mi WSW 6.9 mph 16.1 mph N/A Rain Light Rain
3:26 PM 64.4 °F 57.2 °F 77% 30.25 in 7.0 mi SW 5.8 mph 16.1 mph N/A Rain Light Rain Showers
3:46 PM 59.0 °F 53.6 °F 82% 30.26 in 2.5 mi SSE 2.3 mph - N/A Rain Heavy Rain Showers
3:51 PM 59.0 °F 51.8 °F 77% 30.26 in 4.0 mi ESE 6.9 mph - N/A Rain Heavy Rain Showers
3:56 PM 58.8 °F 53.2 °F 82% 30.26 in 4.0 mi SE 5.8 mph - 0.12 in Rain Heavy Rain Showers
4:11 PM 59.0 °F 51.8 °F 77% 30.26 in 7.0 mi Calm Calm - N/A Rain Light Rain Showers
4:31 PM 60.8 °F 53.6 °F 77% 30.26 in 10.0 mi NNE 2.3 mph - N/A   Mostly Cloudy
4:56 PM 61.0 °F 54.5 °F 79% 30.26 in 6.0 mi SW 3.5 mph - 0.00 in   Mostly Cloudy
5:56 PM 58.8 °F 54.0 °F 84% 30.27 in 6.0 mi SE 3.5 mph - N/A   Partly Cloudy
6:56 PM 56.7 °F 52.7 °F 87% 30.30 in 6.0 mi WSW 3.5 mph - N/A   Clear
7:56 PM 55.4 °F 52.5 °F 90% 30.32 in 5.0 mi NNW 1.2 mph - N/A   Partly Cloudy
8:56 PM 52.7 °F 49.8 °F 90% 30.33 in 6.0 mi ESE 4.6 mph - N/A   Clear
9:56 PM 53.2 °F 48.7 °F 85% 30.33 in 10.0 mi ESE 2.3 mph - N/A   Clear
10:56 PM 52.3 °F 49.1 °F 89% 30.33 in 8.0 mi West 2.3 mph - N/A   Clear
11:56 PM 49.8 °F 45.9 °F 86% 30.32 in 11.0 mi ESE 4.6 mph - N/A   Clear